Volver al catálogo

COSMOS 2278

ActivoNavegaciónLEO
NORAD 23087·PAYLOAD·🇷🇺 Russia

Lanzado Apr 23, 1994 desde Baikonur Cosmodrome

Loading…

Próximos Pases (próximas 24 horas)

TLE

ActualizadoSource: Space-Track

Época: Sep 14, 2026, 22:09 UTC

1 23087U 94023A   26257.92319217  .00000376  00000-0  22094-3 0  9990
2 23087  71.0531 139.1760 0006919 102.2090 257.9808 14.14406296671566

Sigue COSMOS 2278 en tiempo real con AllMySat

Download on the App Store